Location: Katwijk
(52.2000°N, 4.4170°E)
Time: 22:36:35
(UTC+01:00)

ISS - Visible Passes

Search period start: 23 January 2018 00:00
Search period end: 02 February 2018 00:00
Orbit: 402 x 407 km, 51.6° (Epoch: 23 January)

Date Brightness Start Highest point End Pass type
(mag) Time Alt. Az. Time Alt. Az. Time Alt. Az.
26 Jan -1.3 18:56:04 10° SSE 18:56:26 10° SE 18:56:26 10° SE visible
27 Jan -1.9 19:37:27 10° SSW 19:39:08 22° S 19:39:08 22° S visible
28 Jan -2.0 18:45:44 10° SSW 18:48:07 19° SE 18:49:04 17° ESE visible
28 Jan -1.0 20:20:55 10° WSW 20:21:44 16° WSW 20:21:44 16° WSW visible
29 Jan -3.2 19:28:42 10° SW 19:31:37 43° S 19:31:37 43° S visible
30 Jan -2.7 18:36:38 10° SW 18:39:33 31° SSE 18:41:26 18° E visible
30 Jan -1.6 20:12:31 10° WSW 20:14:05 26° WSW 20:14:05 26° WSW visible
31 Jan -3.8 19:20:10 10° WSW 19:23:25 64° SSE 19:23:51 55° ESE visible
01 Feb -3.3 18:27:53 10° SW 18:31:03 49° SSE 18:33:35 15° E visible
01 Feb -2.3 20:04:08 10° W 20:06:14 37° W 20:06:14 37° W visible
